Time,TemperatureF,DewpointF,PressureIn,WindDirection,WindDirectionDegrees,WindSpeedMPH,WindSpeedGustMPH,Humidity,HourlyPrecipIn,Conditions,Clouds,dailyrainin,SolarRadiationWatts/m^2,SoftwareType,DateUTC
2013-02-21 00:00:00,14.8,8.0,30.44,NNW,346,0.0,1.0,74,0.00,,,0.00,0,Wunderground v.1.15,2013-02-21 06:00:00,
2013-02-21 00:05:00,14.8,8.0,30.44,NNW,346,1.0,4.0,74,0.00,,,0.00,0,Wunderground v.1.15,2013-02-21 06:05:00,
2013-02-21 00:10:00,14.8,8.0,30.44,NNW,346,2.0,2.0,74,0.00,,,0.00,0,Wunderground v.1.15,2013-02-21 06:10:00,
2013-02-21 00:15:00,14.7,7.9,30.44,NNW,346,0.0,2.0,74,0.00,,,0.00,0,Wunderground v.1.15,2013-02-21 06:15:00,
2013-02-21 00:20:00,14.6,7.5,30.44,NNW,346,0.0,2.0,73,0.00,,,0.00,0,Wunderground v.1.15,2013-02-21 06:20:00,
2013-02-21 00:25:00,14.5,7.7,30.45,NNW,346,1.0,4.0,74,0.00,,,0.00,0,Wunderground v.1.15,2013-02-21 06:25:00,
2013-02-21 00:30:00,14.4,7.6,30.45,NNW,346,0.0,1.0,74,0.00,,,0.00,0,Wunderground v.1.15,2013-02-21 06:30:00,
2013-02-21 00:35:00,14.3,7.5,30.45,NNW,346,0.0,2.0,74,0.00,,,0.00,0,Wunderground v.1.15,2013-02-21 06:35:00,
2013-02-21 00:40:00,14.0,7.2,30.45,NNW,346,0.0,0.0,74,0.00,,,0.00,0,Wunderground v.1.15,2013-02-21 06:40:00,
2013-02-21 00:45:00,13.7,6.9,30.45,NNW,347,1.0,3.0,74,0.00,,,0.00,0,Wunderground v.1.15,2013-02-21 06:45:00,
2013-02-21 00:50:00,13.6,7.1,30.44,NNW,347,0.0,1.0,75,0.00,,,0.00,0,Wunderground v.1.15,2013-02-21 06:50:00,
2013-02-21 01:06:00,13.4,7.0,30.44,NNW,347,1.0,2.0,75,0.00,,,0.00,0,Wunderground v.1.15,2013-02-21 07:06:00,
2013-02-21 01:11:00,13.4,7.0,30.44,NNW,347,0.0,0.0,75,0.00,,,0.00,0,Wunderground v.1.15,2013-02-21 07:11:00,
2013-02-21 01:16:00,13.4,7.0,30.44,NNW,347,1.0,3.0,75,0.00,,,0.00,0,Wunderground v.1.15,2013-02-21 07:16:00,
2013-02-21 01:21:00,13.5,7.0,30.44,North,355,2.0,3.0,75,0.00,,,0.00,0,Wunderground v.1.15,2013-02-21 07:21:00,
2013-02-21 01:26:00,13.7,7.2,30.44,North,355,2.0,3.0,75,0.00,,,0.00,0,Wunderground v.1.15,2013-02-21 07:26:00,
2013-02-21 01:31:00,13.8,7.3,30.44,North,355,0.0,2.0,75,0.00,,,0.00,0,Wunderground v.1.15,2013-02-21 07:31:00,
2013-02-21 01:36:00,13.7,7.2,30.44,North,355,2.0,3.0,75,0.00,,,0.00,0,Wunderground v.1.15,2013-02-21 07:36:00,
2013-02-21 01:41:00,13.8,7.3,30.44,NNE,33,3.0,3.0,75,0.00,,,0.00,0,Wunderground v.1.15,2013-02-21 07:41:00,
2013-02-21 01:46:00,13.9,7.1,30.45,ENE,63,3.0,5.0,74,0.00,,,0.00,0,Wunderground v.1.15,2013-02-21 07:46:00,
2013-02-21 01:51:00,14.0,7.2,30.45,NE,46,3.0,5.0,74,0.00,,,0.00,0,Wunderground v.1.15,2013-02-21 07:51:00,
2013-02-21 01:56:00,14.1,7.3,30.45,NE,40,4.0,5.0,74,0.00,,,0.00,0,Wunderground v.1.15,2013-02-21 07:56:00,
2013-02-21 02:01:00,14.1,7.3,30.45,NE,40,3.0,4.0,74,0.00,,,0.00,0,Wunderground v.1.15,2013-02-21 08:01:00,
2013-02-21 02:06:00,14.1,7.3,30.45,NE,40,4.0,5.0,74,0.00,,,0.00,0,Wunderground v.1.15,2013-02-21 08:06:00,
2013-02-21 02:11:00,14.0,7.2,30.45,NE,36,5.0,7.0,74,0.00,,,0.00,0,Wunderground v.1.15,2013-02-21 08:11:00,
2013-02-21 02:16:00,14.0,7.2,30.44,NNE,28,6.0,9.0,74,0.00,,,0.00,0,Wunderground v.1.15,2013-02-21 08:16:00,
2013-02-21 02:21:00,14.0,7.2,30.44,NE,38,5.0,6.0,74,0.00,,,0.00,0,Wunderground v.1.15,2013-02-21 08:21:00,
2013-02-21 02:26:00,13.8,7.0,30.44,NE,44,5.0,7.0,74,0.00,,,0.00,0,Wunderground v.1.15,2013-02-21 08:26:00,
2013-02-21 02:31:00,13.7,7.2,30.44,NNE,32,2.0,4.0,75,0.00,,,0.00,0,Wunderground v.1.15,2013-02-21 08:31:00,
2013-02-21 02:36:00,13.5,7.0,30.44,NNE,24,6.0,8.0,75,0.00,,,0.00,0,Wunderground v.1.15,2013-02-21 08:36:00,
2013-02-21 02:41:00,13.4,7.0,30.44,NNE,32,4.0,6.0,75,0.00,,,0.00,0,Wunderground v.1.15,2013-02-21 08:41:00,
2013-02-21 02:46:00,13.3,6.9,30.44,NNE,28,4.0,8.0,75,0.00,,,0.00,0,Wunderground v.1.15,2013-02-21 08:46:00,
2013-02-21 02:51:00,13.3,6.9,30.44,NE,38,5.0,7.0,75,0.00,,,0.00,0,Wunderground v.1.15,2013-02-21 08:51:00,
2013-02-21 02:56:00,13.1,6.7,30.44,NE,39,3.0,7.0,75,0.00,,,0.00,0,Wunderground v.1.15,2013-02-21 08:56:00,
2013-02-21 03:01:00,13.1,7.0,30.44,NE,37,6.0,7.0,76,0.00,,,0.00,0,Wunderground v.1.15,2013-02-21 09:01:00,
2013-02-21 03:06:00,12.9,6.8,30.43,NE,41,4.0,7.0,76,0.00,,,0.00,0,Wunderground v.1.15,2013-02-21 09:06:00,
2013-02-21 03:11:00,12.8,6.7,30.44,NE,34,6.0,7.0,76,0.00,,,0.00,0,Wunderground v.1.15,2013-02-21 09:11:00,
2013-02-21 03:16:00,12.8,6.7,30.44,NE,36,5.0,7.0,76,0.00,,,0.00,0,Wunderground v.1.15,2013-02-21 09:16:00,
2013-02-21 03:21:00,12.8,6.7,30.45,NE,42,3.0,6.0,76,0.00,,,0.00,0,Wunderground v.1.15,2013-02-21 09:21:00,
2013-02-21 03:26:00,12.7,6.6,30.45,NE,40,3.0,6.0,76,0.00,,,0.00,0,Wunderground v.1.15,2013-02-21 09:26:00,
2013-02-21 03:31:00,12.7,6.9,30.46,ENE,57,3.0,5.0,77,0.00,,,0.00,0,Wunderground v.1.15,2013-02-21 09:31:00,
2013-02-21 03:36:00,12.6,6.8,30.46,NE,44,3.0,6.0,77,0.00,,,0.00,0,Wunderground v.1.15,2013-02-21 09:36:00,
2013-02-21 03:41:00,12.6,6.8,30.46,NNE,28,2.0,3.0,77,0.00,,,0.00,0,Wunderground v.1.15,2013-02-21 09:41:00,
2013-02-21 03:46:00,12.5,6.7,30.46,NE,40,2.0,5.0,77,0.00,,,0.00,0,Wunderground v.1.15,2013-02-21 09:46:00,
2013-02-21 03:51:00,12.5,6.7,30.46,NE,40,3.0,5.0,77,0.00,,,0.00,0,Wunderground v.1.15,2013-02-21 09:51:00,
2013-02-21 03:56:00,12.4,6.6,30.47,NNE,33,3.0,5.0,77,0.00,,,0.00,0,Wunderground v.1.15,2013-02-21 09:56:00,
2013-02-21 04:01:00,12.4,6.8,30.47,NNE,31,3.0,5.0,78,0.00,,,0.00,0,Wunderground v.1.15,2013-02-21 10:01:00,
2013-02-21 04:06:00,12.4,6.8,30.47,NNE,28,4.0,8.0,78,0.00,,,0.00,0,Wunderground v.1.15,2013-02-21 10:06:00,
2013-02-21 04:11:00,12.4,6.8,30.47,NE,42,2.0,3.0,78,0.00,,,0.00,0,Wunderground v.1.15,2013-02-21 10:11:00,
2013-02-21 04:16:00,12.4,6.8,30.47,NE,40,2.0,5.0,78,0.00,,,0.00,0,Wunderground v.1.15,2013-02-21 10:16:00,
2013-02-21 04:21:00,12.3,6.7,30.47,NE,40,2.0,2.0,78,0.00,,,0.00,0,Wunderground v.1.15,2013-02-21 10:21:00,
2013-02-21 04:26:00,12.3,6.7,30.47,NE,39,0.0,2.0,78,0.00,,,0.00,0,Wunderground v.1.15,2013-02-21 10:26:00,
2013-02-21 04:31:00,12.3,6.7,30.47,NE,40,0.0,2.0,78,0.00,,,0.00,0,Wunderground v.1.15,2013-02-21 10:31:00,
2013-02-21 04:36:00,12.2,6.7,30.48,NE,39,0.0,2.0,78,0.00,,,0.00,0,Wunderground v.1.15,2013-02-21 10:36:00,
2013-02-21 04:41:00,12.2,6.7,30.48,NE,39,1.0,2.0,78,0.00,,,0.00,0,Wunderground v.1.15,2013-02-21 10:41:00,
2013-02-21 04:46:00,12.2,6.7,30.48,NNE,26,3.0,4.0,78,0.00,,,0.00,0,Wunderground v.1.15,2013-02-21 10:46:00,
2013-02-21 04:51:00,12.1,6.6,30.47,NNE,32,2.0,3.0,78,0.00,,,0.00,0,Wunderground v.1.15,2013-02-21 10:51:00,
2013-02-21 04:56:00,12.1,6.6,30.47,NNE,27,2.0,5.0,78,0.00,,,0.00,0,Wunderground v.1.15,2013-02-21 10:56:00,
2013-02-21 05:01:00,12.0,6.5,30.47,NE,44,4.0,7.0,78,0.00,,,0.00,0,Wunderground v.1.15,2013-02-21 11:01:00,
2013-02-21 05:06:00,11.9,6.4,30.47,NE,40,5.0,7.0,78,0.00,,,0.00,0,Wunderground v.1.15,2013-02-21 11:06:00,
2013-02-21 05:11:00,11.8,6.3,30.47,NE,35,2.0,4.0,78,0.00,,,0.00,0,Wunderground v.1.15,2013-02-21 11:11:00,
2013-02-21 05:16:00,11.7,6.2,30.46,NE,42,1.0,6.0,78,0.00,,,0.00,0,Wunderground v.1.15,2013-02-21 11:16:00,
2013-02-21 05:20:00,11.6,6.1,30.46,NE,45,5.0,6.0,78,0.00,,,0.00,0,Wunderground v.1.15,2013-02-21 11:20:00,
2013-02-21 05:25:00,11.5,6.2,30.45,NE,46,4.0,6.0,79,0.00,,,0.00,0,Wunderground v.1.15,2013-02-21 11:25:00,
2013-02-21 05:30:00,11.4,6.2,30.45,NNE,33,3.0,4.0,79,0.00,,,0.00,0,Wunderground v.1.15,2013-02-21 11:30:00,
2013-02-21 05:35:00,11.3,6.1,30.45,NE,46,4.0,7.0,79,0.00,,,0.00,0,Wunderground v.1.15,2013-02-21 11:35:00,
2013-02-21 05:40:00,11.1,5.6,30.44,NNE,33,4.0,7.0,78,0.00,,,0.00,0,Wunderground v.1.15,2013-02-21 11:40:00,
2013-02-21 05:45:00,11.0,5.5,30.42,NE,38,6.0,8.0,78,0.00,,,0.00,0,Wunderground v.1.15,2013-02-21 11:45:00,
2013-02-21 05:50:00,10.9,5.4,30.42,NE,49,6.0,9.0,78,0.00,,,0.00,0,Wunderground v.1.15,2013-02-21 11:50:00,
2013-02-21 05:55:00,10.8,5.3,30.41,NNE,28,7.0,11.0,78,0.00,,,0.00,0,Wunderground v.1.15,2013-02-21 11:55:00,
2013-02-21 06:00:00,10.7,5.2,30.40,NNE,22,7.0,8.0,78,0.00,,,0.00,0,Wunderground v.1.15,2013-02-21 12:00:00,
2013-02-21 06:05:00,10.5,5.0,30.39,NNE,29,4.0,10.0,78,0.00,,,0.00,0,Wunderground v.1.15,2013-02-21 12:05:00,
2013-02-21 06:10:00,10.4,4.9,30.39,NE,38,5.0,9.0,78,0.00,,,0.00,0,Wunderground v.1.15,2013-02-21 12:10:00,
2013-02-21 06:15:00,10.4,4.9,30.40,NE,50,5.0,9.0,78,0.00,,,0.00,0,Wunderground v.1.15,2013-02-21 12:15:00,
2013-02-21 06:20:00,10.3,4.8,30.42,NNE,19,3.0,4.0,78,0.00,,,0.00,0,Wunderground v.1.15,2013-02-21 12:20:00,
2013-02-21 06:25:00,10.4,4.9,30.45,NE,36,0.0,5.0,78,0.00,,,0.00,0,Wunderground v.1.15,2013-02-21 12:25:00,
2013-02-21 06:30:00,10.4,4.9,30.46,NE,36,2.0,2.0,78,0.00,,,0.00,0,Wunderground v.1.15,2013-02-21 12:30:00,
2013-02-21 06:35:00,10.4,4.9,30.48,NE,36,0.0,2.0,78,0.00,,,0.00,0,Wunderground v.1.15,2013-02-21 12:35:00,
2013-02-21 06:40:00,10.4,4.9,30.46,SE,130,2.0,3.0,78,0.00,,,0.00,5,Wunderground v.1.15,2013-02-21 12:40:00,
2013-02-21 06:45:00,10.4,5.2,30.45,SE,130,1.0,3.0,79,0.00,,,0.00,7,Wunderground v.1.15,2013-02-21 12:45:00,
2013-02-21 06:50:00,10.4,5.2,30.45,SE,130,2.0,3.0,79,0.00,,,0.00,11,Wunderground v.1.15,2013-02-21 12:50:00,
2013-02-21 06:55:00,10.4,5.2,30.45,SE,130,1.0,3.0,79,0.00,,,0.00,18,Wunderground v.1.15,2013-02-21 12:55:00,
2013-02-21 07:00:00,10.4,5.2,30.45,SE,130,0.0,2.0,79,0.00,,,0.00,28,Wunderground v.1.15,2013-02-21 13:00:00,
2013-02-21 07:05:00,10.4,5.2,30.45,SE,130,0.0,2.0,79,0.00,,,0.00,26,Wunderground v.1.15,2013-02-21 13:05:00,
2013-02-21 07:10:00,10.5,5.3,30.47,SE,130,0.0,1.0,79,0.00,,,0.00,28,Wunderground v.1.15,2013-02-21 13:10:00,
2013-02-21 07:15:00,10.5,5.3,30.47,SE,130,0.0,1.0,79,0.00,,,0.00,35,Wunderground v.1.15,2013-02-21 13:15:00,
2013-02-21 07:20:00,10.5,5.3,30.47,SE,130,0.0,0.0,79,0.00,,,0.00,42,Wunderground v.1.15,2013-02-21 13:20:00,
2013-02-21 07:25:00,10.7,5.5,30.48,SE,130,0.0,0.0,79,0.00,,,0.00,51,Wunderground v.1.15,2013-02-21 13:25:00,
2013-02-21 07:30:00,10.8,5.6,30.48,SE,130,1.0,2.0,79,0.00,,,0.00,67,Wunderground v.1.15,2013-02-21 13:30:00,
2013-02-21 07:35:00,10.9,5.7,30.47,SE,130,3.0,3.0,79,0.00,,,0.00,76,Wunderground v.1.15,2013-02-21 13:35:00,
2013-02-21 07:40:00,11.0,5.8,30.46,NNE,13,4.0,4.0,79,0.00,,,0.00,90,Wunderground v.1.15,2013-02-21 13:40:00,
2013-02-21 07:45:00,11.2,6.2,30.46,NNE,30,4.0,6.0,80,0.00,,,0.00,86,Wunderground v.1.15,2013-02-21 13:45:00,
2013-02-21 07:50:00,11.4,6.4,30.46,ENE,61,3.0,5.0,80,0.00,,,0.00,90,Wunderground v.1.15,2013-02-21 13:50:00,
2013-02-21 07:55:00,11.6,6.6,30.46,NNE,26,0.0,7.0,80,0.00,,,0.00,113,Wunderground v.1.15,2013-02-21 13:55:00,
2013-02-21 08:00:00,11.8,7.1,30.48,ENE,63,3.0,4.0,81,0.00,,,0.00,134,Wunderground v.1.15,2013-02-21 14:00:00,
2013-02-21 08:05:00,12.1,7.4,30.48,ENE,63,3.0,5.0,81,0.00,,,0.00,146,Wunderground v.1.15,2013-02-21 14:05:00,
2013-02-21 08:10:00,12.3,7.6,30.48,ENE,77,9.0,10.0,81,0.00,,,0.00,142,Wunderground v.1.15,2013-02-21 14:10:00,
2013-02-21 08:15:00,12.5,7.8,30.48,NE,34,4.0,10.0,81,0.00,,,0.00,176,Wunderground v.1.15,2013-02-21 14:15:00,
2013-02-21 08:20:00,12.7,8.2,30.49,ENE,67,5.0,9.0,82,0.00,,,0.00,171,Wunderground v.1.15,2013-02-21 14:20:00,
2013-02-21 08:25:00,12.8,8.1,30.49,NE,45,4.0,9.0,81,0.00,,,0.00,197,Wunderground v.1.15,2013-02-21 14:25:00,
2013-02-21 08:30:00,12.9,8.2,30.49,North,9,7.0,8.0,81,0.00,,,0.00,179,Wunderground v.1.15,2013-02-21 14:30:00,
2013-02-21 08:35:00,13.0,8.3,30.48,ENE,67,7.0,11.0,81,0.00,,,0.00,190,Wunderground v.1.15,2013-02-21 14:35:00,
2013-02-21 08:40:00,13.0,8.3,30.47,NE,38,6.0,11.0,81,0.00,,,0.00,199,Wunderground v.1.15,2013-02-21 14:40:00,
2013-02-21 08:45:00,13.1,8.4,30.47,NE,53,6.0,11.0,81,0.00,,,0.00,227,Wunderground v.1.15,2013-02-21 14:45:00,
2013-02-21 08:50:00,13.2,8.5,30.46,NE,51,10.0,10.0,81,0.00,,,0.00,248,Wunderground v.1.15,2013-02-21 14:50:00,
2013-02-21 08:55:00,13.2,8.7,30.47,ENE,77,8.0,11.0,82,0.00,,,0.00,244,Wunderground v.1.15,2013-02-21 14:55:00,
2013-02-21 09:00:00,13.3,8.6,30.47,ENE,76,8.0,13.0,81,0.00,,,0.00,287,Wunderground v.1.15,2013-02-21 15:00:00,
2013-02-21 09:05:00,13.4,8.9,30.47,NE,47,8.0,13.0,82,0.00,,,0.00,297,Wunderground v.1.15,2013-02-21 15:05:00,
2013-02-21 09:10:00,13.5,9.0,30.47,NE,53,5.0,9.0,82,0.00,,,0.00,334,Wunderground v.1.15,2013-02-21 15:10:00,
2013-02-21 09:15:00,13.6,8.9,30.46,NE,49,7.0,11.0,81,0.00,,,0.00,343,Wunderground v.1.15,2013-02-21 15:15:00,
2013-02-21 09:20:00,13.6,8.9,30.46,NE,51,8.0,8.0,81,0.00,,,0.00,366,Wunderground v.1.15,2013-02-21 15:20:00,
2013-02-21 09:25:00,13.7,9.0,30.45,ENE,63,12.0,14.0,81,0.00,,,0.00,290,Wunderground v.1.15,2013-02-21 15:25:00,
2013-02-21 09:30:00,13.7,9.2,30.46,East,79,8.0,10.0,82,0.00,,,0.00,334,Wunderground v.1.15,2013-02-21 15:30:00,
2013-02-21 09:35:00,13.9,9.4,30.46,NNE,12,6.0,11.0,82,0.00,,,0.00,292,Wunderground v.1.15,2013-02-21 15:35:00,
2013-02-21 09:40:00,14.1,9.6,30.45,NE,36,9.0,10.0,82,0.00,,,0.00,304,Wunderground v.1.15,2013-02-21 15:40:00,
2013-02-21 09:45:00,14.1,9.9,30.46,ENE,63,10.0,14.0,83,0.00,,,0.00,294,Wunderground v.1.15,2013-02-21 15:45:00,
2013-02-21 09:50:00,14.2,10.0,30.46,NNE,19,10.0,10.0,83,0.00,,,0.00,306,Wunderground v.1.15,2013-02-21 15:50:00,
2013-02-21 09:55:00,14.3,10.1,30.45,ENE,60,10.0,11.0,83,0.00,,,0.00,308,Wunderground v.1.15,2013-02-21 15:55:00,
2013-02-21 10:00:00,14.5,10.5,30.45,ENE,68,12.0,12.0,84,0.00,,,0.00,313,Wunderground v.1.15,2013-02-21 16:00:00,
2013-02-21 10:05:00,14.7,10.7,30.45,NNE,32,8.0,12.0,84,0.00,,,0.00,316,Wunderground v.1.15,2013-02-21 16:05:00,
2013-02-21 10:10:00,14.9,10.7,30.46,East,86,7.0,9.0,83,0.00,,,0.00,336,Wunderground v.1.15,2013-02-21 16:10:00,
2013-02-21 10:15:00,15.1,10.9,30.46,East,95,8.0,9.0,83,0.00,,,0.00,345,Wunderground v.1.15,2013-02-21 16:15:00,
2013-02-21 10:20:00,15.4,11.2,30.46,ENE,66,5.0,8.0,83,0.00,,,0.00,424,Wunderground v.1.15,2013-02-21 16:20:00,
2013-02-21 10:25:00,15.5,11.0,30.46,East,96,7.0,11.0,82,0.00,,,0.00,374,Wunderground v.1.15,2013-02-21 16:25:00,
2013-02-21 10:30:00,15.7,11.5,30.46,East,91,11.0,11.0,83,0.00,,,0.00,397,Wunderground v.1.15,2013-02-21 16:30:00,
2013-02-21 10:35:00,15.8,11.3,30.46,ENE,75,10.0,14.0,82,0.00,,,0.00,413,Wunderground v.1.15,2013-02-21 16:35:00,
2013-02-21 10:40:00,16.0,11.5,30.45,NE,44,9.0,12.0,82,0.00,,,0.00,413,Wunderground v.1.15,2013-02-21 16:40:00,
2013-02-21 10:45:00,16.1,11.6,30.45,ENE,75,5.0,12.0,82,0.00,,,0.00,415,Wunderground v.1.15,2013-02-21 16:45:00,
2013-02-21 10:50:00,16.4,11.9,30.46,East,90,5.0,9.0,82,0.00,,,0.00,406,Wunderground v.1.15,2013-02-21 16:50:00,
2013-02-21 10:55:00,16.4,11.9,30.46,ENE,74,7.0,11.0,82,0.00,,,0.00,396,Wunderground v.1.15,2013-02-21 16:55:00,
2013-02-21 11:00:00,16.6,12.1,30.46,East,98,8.0,9.0,82,0.00,,,0.00,387,Wunderground v.1.15,2013-02-21 17:00:00,
2013-02-21 11:05:00,16.8,12.3,30.45,ENE,71,5.0,13.0,82,0.00,,,0.00,392,Wunderground v.1.15,2013-02-21 17:05:00,
2013-02-21 11:10:00,17.1,12.6,30.45,ENE,76,7.0,8.0,82,0.00,,,0.00,376,Wunderground v.1.15,2013-02-21 17:10:00,
2013-02-21 11:15:00,17.2,12.4,30.45,East,82,9.0,15.0,81,0.00,,,0.00,392,Wunderground v.1.15,2013-02-21 17:15:00,
2013-02-21 11:20:00,17.3,12.5,30.44,East,90,7.0,9.0,81,0.00,,,0.00,438,Wunderground v.1.15,2013-02-21 17:20:00,
2013-02-21 11:25:00,17.4,12.6,30.43,ENE,78,7.0,14.0,81,0.00,,,0.00,466,Wunderground v.1.15,2013-02-21 17:25:00,
2013-02-21 11:30:00,17.6,12.8,30.43,ENE,76,13.0,13.0,81,0.00,,,0.00,427,Wunderground v.1.15,2013-02-21 17:30:00,
2013-02-21 11:35:00,17.8,13.2,30.42,ESE,115,12.0,14.0,82,0.00,,,0.00,343,Wunderground v.1.15,2013-02-21 17:35:00,
2013-02-21 11:40:00,18.0,13.4,30.42,ENE,75,8.0,10.0,82,0.00,,,0.00,327,Wunderground v.1.15,2013-02-21 17:40:00,
2013-02-21 11:45:00,18.1,13.5,30.42,NE,53,5.0,11.0,82,0.00,,,0.00,285,Wunderground v.1.15,2013-02-21 17:45:00,
2013-02-21 11:50:00,18.1,13.8,30.41,ENE,71,10.0,10.0,83,0.00,,,0.00,287,Wunderground v.1.15,2013-02-21 17:50:00,
2013-02-21 11:55:00,18.2,14.2,30.40,NE,38,7.0,11.0,84,0.00,,,0.00,290,Wunderground v.1.15,2013-02-21 17:55:00,
2013-02-21 12:00:00,18.1,14.1,30.40,NNE,25,9.0,10.0,84,0.00,,,0.00,295,Wunderground v.1.15,2013-02-21 18:00:00,
2013-02-21 12:05:00,18.1,14.1,30.40,ENE,59,9.0,14.0,84,0.00,,,0.00,316,Wunderground v.1.15,2013-02-21 18:05:00,
2013-02-21 12:10:00,18.2,14.2,30.40,ENE,65,9.0,9.0,84,0.00,,,0.00,322,Wunderground v.1.15,2013-02-21 18:10:00,
2013-02-21 12:15:00,18.2,14.2,30.40,NNE,16,8.0,11.0,84,0.00,,,0.00,311,Wunderground v.1.15,2013-02-21 18:15:00,
2013-02-21 12:20:00,18.1,14.1,30.40,North,355,5.0,8.0,84,0.00,,,0.00,301,Wunderground v.1.15,2013-02-21 18:20:00,
2013-02-21 12:25:00,18.1,14.4,30.40,NE,40,8.0,9.0,85,0.00,,,0.00,279,Wunderground v.1.15,2013-02-21 18:25:00,
2013-02-21 12:30:00,18.1,14.4,30.40,NNE,28,6.0,7.0,85,0.00,,,0.00,278,Wunderground v.1.15,2013-02-21 18:30:00,
2013-02-21 12:35:00,18.2,14.4,30.39,NNE,12,7.0,9.0,85,0.00,,,0.00,253,Wunderground v.1.15,2013-02-21 18:35:00,
2013-02-21 12:40:00,18.3,14.5,30.38,ENE,58,5.0,7.0,85,0.00,,,0.00,232,Wunderground v.1.15,2013-02-21 18:40:00,
2013-02-21 12:45:00,18.5,15.0,30.39,NNE,22,1.0,7.0,86,0.00,,,0.00,225,Wunderground v.1.15,2013-02-21 18:45:00,
2013-02-21 12:50:00,18.7,15.2,30.38,NNE,31,5.0,6.0,86,0.00,,,0.00,230,Wunderground v.1.15,2013-02-21 18:50:00,
2013-02-21 12:55:00,18.8,15.3,30.37,NE,53,5.0,10.0,86,0.00,,,0.00,214,Wunderground v.1.15,2013-02-21 18:55:00,
2013-02-21 13:00:00,18.9,15.4,30.37,NNE,17,2.0,6.0,86,0.00,,,0.00,218,Wunderground v.1.15,2013-02-21 19:00:00,
2013-02-21 13:05:00,19.0,15.2,30.36,NNE,19,6.0,11.0,85,0.00,,,0.00,230,Wunderground v.1.15,2013-02-21 19:05:00,
2013-02-21 13:10:00,19.1,15.6,30.35,ENE,57,8.0,9.0,86,0.00,,,0.00,216,Wunderground v.1.15,2013-02-21 19:10:00,
2013-02-21 13:15:00,19.1,15.6,30.35,NNE,20,5.0,11.0,86,0.00,,,0.00,200,Wunderground v.1.15,2013-02-21 19:15:00,
2013-02-21 13:20:00,19.3,16.1,30.35,NNE,32,6.0,8.0,87,0.00,,,0.00,207,Wunderground v.1.15,2013-02-21 19:20:00,
2013-02-21 13:25:00,19.3,16.1,30.35,NE,45,7.0,14.0,87,0.00,,,0.00,213,Wunderground v.1.15,2013-02-21 19:25:00,
2013-02-21 13:30:00,19.3,16.1,30.34,North,5,8.0,8.0,87,0.00,,,0.00,204,Wunderground v.1.15,2013-02-21 19:30:00,
2013-02-21 13:35:00,19.4,16.2,30.34,NE,41,12.0,12.0,87,0.00,,,0.00,197,Wunderground v.1.15,2013-02-21 19:35:00,
2013-02-21 13:40:00,19.5,16.3,30.33,NNE,21,5.0,12.0,87,0.00,,,0.00,197,Wunderground v.1.15,2013-02-21 19:40:00,
2013-02-21 13:45:00,19.7,16.5,30.33,NNE,18,3.0,12.0,87,0.00,,,0.00,188,Wunderground v.1.15,2013-02-21 19:45:00,
2013-02-21 13:50:00,19.9,16.7,30.33,ENE,58,4.0,5.0,87,0.00,,,0.00,186,Wunderground v.1.15,2013-02-21 19:50:00,
2013-02-21 13:55:00,20.1,16.9,30.34,NE,42,8.0,9.0,87,0.00,,,0.00,186,Wunderground v.1.15,2013-02-21 19:55:00,
2013-02-21 14:00:00,20.2,17.0,30.33,NNE,32,3.0,6.0,87,0.00,,,0.00,193,Wunderground v.1.15,2013-02-21 20:00:00,
2013-02-21 14:05:00,20.3,17.0,30.33,NE,46,2.0,10.0,87,0.00,,,0.00,197,Wunderground v.1.15,2013-02-21 20:05:00,
2013-02-21 14:10:00,20.2,17.0,30.33,NNE,29,4.0,6.0,87,0.00,,,0.00,188,Wunderground v.1.15,2013-02-21 20:10:00,
2013-02-21 14:15:00,20.3,17.0,30.33,NNE,15,5.0,9.0,87,0.00,,,0.00,181,Wunderground v.1.15,2013-02-21 20:15:00,
2013-02-21 14:20:00,20.4,17.1,30.32,NE,37,4.0,6.0,87,0.00,,,0.00,176,Wunderground v.1.15,2013-02-21 20:20:00,
2013-02-21 14:25:00,20.6,17.3,30.32,NNE,20,7.0,10.0,87,0.00,,,0.00,165,Wunderground v.1.15,2013-02-21 20:25:00,
2013-02-21 14:30:00,20.7,17.4,30.32,ENE,57,10.0,10.0,87,0.00,,,0.00,153,Wunderground v.1.15,2013-02-21 20:30:00,
2013-02-21 14:35:00,20.8,17.8,30.33,NNE,32,6.0,13.0,88,0.00,,,0.00,155,Wunderground v.1.15,2013-02-21 20:35:00,
2013-02-21 14:40:00,20.9,17.6,30.34,NNE,33,9.0,10.0,87,0.00,,,0.00,137,Wunderground v.1.15,2013-02-21 20:40:00,
2013-02-21 14:45:00,20.9,17.9,30.34,NE,35,5.0,10.0,88,0.00,,,0.00,130,Wunderground v.1.15,2013-02-21 20:45:00,
2013-02-21 14:50:00,20.9,17.9,30.34,NE,41,5.0,8.0,88,0.00,,,0.00,120,Wunderground v.1.15,2013-02-21 20:50:00,
2013-02-21 14:55:00,20.9,17.9,30.33,NE,44,8.0,11.0,88,0.00,,,0.00,114,Wunderground v.1.15,2013-02-21 20:55:00,
2013-02-21 15:00:00,20.9,17.9,30.33,ENE,69,11.0,12.0,88,0.00,,,0.00,125,Wunderground v.1.15,2013-02-21 21:00:00,
2013-02-21 15:05:00,20.9,17.9,30.33,NE,42,6.0,12.0,88,0.00,,,0.00,113,Wunderground v.1.15,2013-02-21 21:05:00,
2013-02-21 15:10:00,20.9,17.9,30.33,NE,52,8.0,10.0,88,0.00,,,0.00,107,Wunderground v.1.15,2013-02-21 21:10:00,
2013-02-21 15:15:00,20.9,17.9,30.33,NE,36,8.0,12.0,88,0.00,,,0.00,104,Wunderground v.1.15,2013-02-21 21:15:00,
2013-02-21 15:20:00,20.9,17.9,30.33,NE,53,6.0,9.0,88,0.00,,,0.00,102,Wunderground v.1.15,2013-02-21 21:20:00,
2013-02-21 15:25:00,21.0,18.3,30.33,ENE,70,7.0,14.0,89,0.00,,,0.00,102,Wunderground v.1.15,2013-02-21 21:25:00,
2013-02-21 15:30:00,21.0,18.3,30.32,NE,46,12.0,12.0,89,0.00,,,0.00,97,Wunderground v.1.15,2013-02-21 21:30:00,
2013-02-21 15:35:00,20.9,18.2,30.31,NNE,33,14.0,18.0,89,0.00,,,0.00,93,Wunderground v.1.15,2013-02-21 21:35:00,
2013-02-21 15:40:00,20.9,18.2,30.31,NE,41,6.0,11.0,89,0.00,,,0.00,88,Wunderground v.1.15,2013-02-21 21:40:00,
2013-02-21 15:45:00,21.0,18.3,30.32,NE,44,8.0,12.0,89,0.00,,,0.00,77,Wunderground v.1.15,2013-02-21 21:45:00,
2013-02-21 15:50:00,21.1,18.6,30.32,NE,55,14.0,14.0,90,0.00,,,0.00,72,Wunderground v.1.15,2013-02-21 21:50:00,
2013-02-21 15:55:00,21.1,18.4,30.31,NE,54,12.0,16.0,89,0.00,,,0.00,72,Wunderground v.1.15,2013-02-21 21:55:00,
2013-02-21 16:00:00,21.2,18.7,30.31,NE,53,8.0,10.0,90,0.00,,,0.00,67,Wunderground v.1.15,2013-02-21 22:00:00,
2013-02-21 16:05:00,21.2,18.7,30.30,NE,41,7.0,15.0,90,0.00,,,0.00,67,Wunderground v.1.15,2013-02-21 22:05:00,
2013-02-21 16:10:00,21.3,18.8,30.30,NNE,18,9.0,10.0,90,0.00,,,0.00,54,Wunderground v.1.15,2013-02-21 22:10:00,
2013-02-21 16:15:00,21.3,18.8,30.30,ENE,63,10.0,14.0,90,0.00,,,0.00,49,Wunderground v.1.15,2013-02-21 22:15:00,
2013-02-21 16:20:00,21.3,18.8,30.30,NNE,28,8.0,9.0,90,0.00,,,0.00,40,Wunderground v.1.15,2013-02-21 22:20:00,
2013-02-21 16:25:00,21.3,18.8,30.30,North,11,12.0,12.0,90,0.00,,,0.00,39,Wunderground v.1.15,2013-02-21 22:25:00,
2013-02-21 16:30:00,21.3,18.8,30.29,NE,44,6.0,9.0,90,0.00,,,0.00,35,Wunderground v.1.15,2013-02-21 22:30:00,
2013-02-21 16:35:00,21.3,18.8,30.29,NE,55,10.0,16.0,90,0.00,,,0.00,32,Wunderground v.1.15,2013-02-21 22:35:00,
2013-02-21 16:40:00,21.4,18.9,30.29,ENE,57,11.0,11.0,90,0.00,,,0.00,28,Wunderground v.1.15,2013-02-21 22:40:00,
2013-02-21 16:45:00,21.5,19.3,30.29,NE,38,7.0,11.0,91,0.00,,,0.00,25,Wunderground v.1.15,2013-02-21 22:45:00,
2013-02-21 16:50:00,21.5,19.3,30.29,ENE,57,9.0,9.0,91,0.00,,,0.00,19,Wunderground v.1.15,2013-02-21 22:50:00,
2013-02-21 16:55:00,21.4,19.2,30.28,ENE,61,12.0,14.0,91,0.00,,,0.00,16,Wunderground v.1.15,2013-02-21 22:55:00,
2013-02-21 17:00:00,21.5,19.3,30.28,NE,44,11.0,11.0,91,0.00,,,0.00,12,Wunderground v.1.15,2013-02-21 23:00:00,
2013-02-21 17:05:00,21.5,19.3,30.27,NE,48,4.0,13.0,91,0.00,,,0.00,11,Wunderground v.1.15,2013-02-21 23:05:00,
2013-02-21 17:10:00,21.6,19.4,30.27,NE,38,7.0,9.0,91,0.00,,,0.00,9,Wunderground v.1.15,2013-02-21 23:10:00,
2013-02-21 17:15:00,21.6,19.6,30.26,NE,38,10.0,15.0,92,0.00,,,0.00,7,Wunderground v.1.15,2013-02-21 23:15:00,
2013-02-21 17:20:00,21.7,19.5,30.26,NNE,28,9.0,11.0,91,0.00,,,0.00,5,Wunderground v.1.15,2013-02-21 23:20:00,
2013-02-21 17:25:00,21.8,19.8,30.26,NE,42,10.0,13.0,92,0.00,,,0.00,0,Wunderground v.1.15,2013-02-21 23:25:00,
2013-02-21 17:30:00,22.0,20.0,30.25,NE,40,8.0,9.0,92,0.00,,,0.00,0,Wunderground v.1.15,2013-02-21 23:30:00,
2013-02-21 17:35:00,22.1,20.1,30.25,NE,49,13.0,16.0,92,0.00,,,0.00,0,Wunderground v.1.15,2013-02-21 23:35:00,
2013-02-21 17:40:00,22.2,20.2,30.25,NE,47,10.0,11.0,92,0.00,,,0.00,0,Wunderground v.1.15,2013-02-21 23:40:00,
2013-02-21 17:45:00,22.3,20.3,30.24,NNE,32,9.0,15.0,92,0.00,,,0.00,0,Wunderground v.1.15,2013-02-21 23:45:00,
2013-02-21 17:50:00,22.4,20.4,30.25,NNE,22,11.0,11.0,92,0.00,,,0.00,0,Wunderground v.1.15,2013-02-21 23:50:00,
2013-02-21 17:55:00,22.4,20.4,30.25,NE,38,8.0,18.0,92,0.00,,,0.00,0,Wunderground v.1.15,2013-02-21 23:55:00,
2013-02-21 18:00:00,22.5,20.5,30.25,ENE,59,12.0,13.0,92,0.00,,,0.00,0,Wunderground v.1.15,2013-02-22 00:00:00,
2013-02-21 18:05:00,22.6,20.6,30.25,NNE,23,10.0,17.0,92,0.00,,,0.00,0,Wunderground v.1.15,2013-02-22 00:05:00,
2013-02-21 18:10:00,22.7,20.7,30.24,NE,46,7.0,11.0,92,0.00,,,0.00,0,Wunderground v.1.15,2013-02-22 00:10:00,
2013-02-21 18:15:00,22.7,20.7,30.24,NE,38,11.0,18.0,92,0.00,,,0.00,0,Wunderground v.1.15,2013-02-22 00:15:00,
2013-02-21 18:20:00,22.9,20.9,30.24,ENE,68,8.0,9.0,92,0.00,,,0.00,0,Wunderground v.1.15,2013-02-22 00:20:00,
2013-02-21 18:25:00,23.0,21.0,30.24,NE,49,6.0,16.0,92,0.00,,,0.00,0,Wunderground v.1.15,2013-02-22 00:25:00,
2013-02-21 18:30:00,23.1,21.1,30.23,NE,42,9.0,10.0,92,0.00,,,0.00,0,Wunderground v.1.15,2013-02-22 00:30:00,
2013-02-21 18:35:00,23.2,21.2,30.23,ENE,58,7.0,16.0,92,0.00,,,0.00,0,Wunderground v.1.15,2013-02-22 00:35:00,
2013-02-21 18:40:00,23.4,21.4,30.23,ENE,61,17.0,17.0,92,0.00,,,0.00,0,Wunderground v.1.15,2013-02-22 00:40:00,
2013-02-21 18:45:00,23.5,21.5,30.22,ENE,58,11.0,17.0,92,0.00,,,0.00,0,Wunderground v.1.15,2013-02-22 00:45:00,
2013-02-21 18:50:00,23.6,21.6,30.21,NE,46,13.0,14.0,92,0.00,,,0.00,0,Wunderground v.1.15,2013-02-22 00:50:00,
2013-02-21 18:55:00,23.8,21.8,30.22,ENE,71,11.0,19.0,92,0.00,,,0.00,0,Wunderground v.1.15,2013-02-22 00:55:00,
2013-02-21 19:00:00,23.9,21.9,30.22,East,80,10.0,12.0,92,0.00,,,0.00,0,Wunderground v.1.15,2013-02-22 01:00:00,
2013-02-21 19:05:00,24.0,22.0,30.23,ENE,75,13.0,17.0,92,0.00,,,0.00,0,Wunderground v.1.15,2013-02-22 01:05:00,
2013-02-21 19:10:00,24.1,22.1,30.23,ENE,59,9.0,11.0,92,0.00,,,0.00,0,Wunderground v.1.15,2013-02-22 01:10:00,
2013-02-21 19:15:00,24.3,22.3,30.22,ENE,76,12.0,16.0,92,0.00,,,0.00,0,Wunderground v.1.15,2013-02-22 01:15:00,
2013-02-21 19:20:00,24.4,22.4,30.21,NE,50,13.0,13.0,92,0.00,,,0.00,0,Wunderground v.1.15,2013-02-22 01:20:00,
2013-02-21 19:25:00,24.5,22.5,30.21,ENE,77,9.0,15.0,92,0.00,,,0.00,0,Wunderground v.1.15,2013-02-22 01:25:00,
2013-02-21 19:30:00,24.7,22.7,30.20,East,88,13.0,17.0,92,0.00,,,0.00,0,Wunderground v.1.15,2013-02-22 01:30:00,
2013-02-21 19:35:00,24.8,22.8,30.19,ENE,69,9.0,17.0,92,0.00,,,0.00,0,Wunderground v.1.15,2013-02-22 01:35:00,
2013-02-21 19:40:00,25.0,23.0,30.18,ENE,65,13.0,13.0,92,0.00,,,0.00,0,Wunderground v.1.15,2013-02-22 01:40:00,
2013-02-21 19:45:00,25.1,23.1,30.18,East,86,15.0,18.0,92,0.00,,,0.00,0,Wunderground v.1.15,2013-02-22 01:45:00,
2013-02-21 19:50:00,25.1,23.1,30.17,NE,47,16.0,16.0,92,0.00,,,0.00,0,Wunderground v.1.15,2013-02-22 01:50:00,
2013-02-21 19:55:00,25.1,22.8,30.16,East,87,11.0,19.0,91,0.00,,,0.00,0,Wunderground v.1.15,2013-02-22 01:55:00,
2013-02-21 20:00:00,25.1,22.8,30.17,East,88,10.0,15.0,91,0.00,,,0.00,0,Wunderground v.1.15,2013-02-22 02:00:00,
2013-02-21 20:05:00,25.1,22.8,30.17,NE,43,13.0,20.0,91,0.00,,,0.00,0,Wunderground v.1.15,2013-02-22 02:05:00,
2013-02-21 20:10:00,25.1,22.6,30.16,East,85,14.0,15.0,90,0.00,,,0.00,0,Wunderground v.1.15,2013-02-22 02:10:00,
2013-02-21 20:15:00,25.1,22.3,30.15,East,94,17.0,21.0,89,0.00,,,0.00,0,Wunderground v.1.15,2013-02-22 02:15:00,
2013-02-21 20:20:00,25.1,22.3,30.16,ENE,71,16.0,16.0,89,0.00,,,0.00,0,Wunderground v.1.15,2013-02-22 02:20:00,
2013-02-21 20:25:00,25.2,22.4,30.16,NE,51,17.0,27.0,89,0.00,,,0.00,0,Wunderground v.1.15,2013-02-22 02:25:00,
2013-02-21 20:30:00,25.2,22.1,30.16,ESE,122,13.0,16.0,88,0.00,,,0.00,0,Wunderground v.1.15,2013-02-22 02:30:00,
2013-02-21 20:35:00,25.2,22.1,30.17,East,87,11.0,24.0,88,0.00,,,0.00,0,Wunderground v.1.15,2013-02-22 02:35:00,
2013-02-21 20:40:00,25.2,22.1,30.17,ENE,60,13.0,15.0,88,0.00,,,0.00,0,Wunderground v.1.15,2013-02-22 02:40:00,
2013-02-21 20:45:00,25.2,22.1,30.16,East,80,13.0,18.0,88,0.00,,,0.00,0,Wunderground v.1.15,2013-02-22 02:45:00,
2013-02-21 20:50:00,25.1,22.0,30.16,East,89,15.0,15.0,88,0.00,,,0.00,0,Wunderground v.1.15,2013-02-22 02:50:00,
2013-02-21 20:55:00,25.2,22.1,30.16,ENE,70,11.0,19.0,88,0.00,,,0.00,0,Wunderground v.1.15,2013-02-22 02:55:00,
2013-02-21 21:00:00,25.2,22.1,30.16,ENE,69,18.0,18.0,88,0.00,,,0.00,0,Wunderground v.1.15,2013-02-22 03:00:00,
2013-02-21 21:05:00,25.2,22.1,30.16,ENE,78,17.0,18.0,88,0.00,,,0.00,0,Wunderground v.1.15,2013-02-22 03:05:00,
2013-02-21 21:10:00,25.2,22.1,30.15,ENE,77,16.0,17.0,88,0.00,,,0.00,0,Wunderground v.1.15,2013-02-22 03:10:00,
2013-02-21 21:15:00,25.2,22.1,30.14,ENE,69,8.0,19.0,88,0.00,,,0.00,0,Wunderground v.1.15,2013-02-22 03:15:00,
2013-02-21 21:20:00,25.2,22.1,30.14,East,96,15.0,16.0,88,0.00,,,0.00,0,Wunderground v.1.15,2013-02-22 03:20:00,
2013-02-21 21:25:00,25.2,22.1,30.13,ENE,75,16.0,23.0,88,0.00,,,0.00,0,Wunderground v.1.15,2013-02-22 03:25:00,
2013-02-21 21:30:00,25.3,22.0,30.12,ENE,70,16.0,16.0,87,0.00,,,0.00,0,Wunderground v.1.15,2013-02-22 03:30:00,
2013-02-21 21:35:00,25.3,22.2,30.13,ENE,61,16.0,23.0,88,0.00,,,0.00,0,Wunderground v.1.15,2013-02-22 03:35:00,
2013-02-21 21:40:00,25.4,22.1,30.13,ENE,71,14.0,14.0,87,0.00,,,0.00,0,Wunderground v.1.15,2013-02-22 03:40:00,
2013-02-21 21:45:00,25.4,22.1,30.13,ENE,61,13.0,21.0,87,0.00,,,0.00,0,Wunderground v.1.15,2013-02-22 03:45:00,
2013-02-21 21:50:00,25.4,22.1,30.12,East,81,14.0,14.0,87,0.00,,,0.00,0,Wunderground v.1.15,2013-02-22 03:50:00,
2013-02-21 21:55:00,25.4,22.1,30.12,East,84,14.0,18.0,87,0.00,,,0.00,0,Wunderground v.1.15,2013-02-22 03:55:00,
2013-02-21 22:00:00,25.5,22.2,30.12,ESE,105,10.0,13.0,87,0.00,,,0.00,0,Wunderground v.1.15,2013-02-22 04:00:00,
2013-02-21 22:05:00,25.5,22.2,30.12,ESE,102,12.0,19.0,87,0.00,,,0.00,0,Wunderground v.1.15,2013-02-22 04:05:00,
2013-02-21 22:10:00,25.6,22.3,30.13,East,79,16.0,16.0,87,0.00,,,0.00,0,Wunderground v.1.15,2013-02-22 04:10:00,
2013-02-21 22:15:00,25.6,22.0,30.13,ESE,116,11.0,16.0,86,0.00,,,0.00,0,Wunderground v.1.15,2013-02-22 04:15:00,
2013-02-21 22:20:00,25.7,22.1,30.13,East,89,19.0,27.0,86,0.00,,,0.00,0,Wunderground v.1.15,2013-02-22 04:20:00,
2013-02-21 22:24:00,25.7,21.8,30.13,East,84,11.0,25.0,85,0.00,,,0.00,0,Wunderground v.1.15,2013-02-22 04:24:00,
2013-02-21 22:29:00,25.7,21.5,30.12,East,87,19.0,25.0,84,0.00,,,0.00,0,Wunderground v.1.15,2013-02-22 04:29:00,
2013-02-21 22:35:00,25.7,21.5,30.13,East,98,16.0,20.0,84,0.00,,,0.00,0,Wunderground v.1.15,2013-02-22 04:35:00,
2013-02-21 22:40:00,25.6,21.4,30.13,East,90,17.0,22.0,84,0.00,,,0.00,0,Wunderground v.1.15,2013-02-22 04:40:00,
2013-02-21 22:45:00,25.6,21.4,30.13,East,93,11.0,20.0,84,0.00,,,0.00,0,Wunderground v.1.15,2013-02-22 04:45:00,
2013-02-21 22:50:00,25.5,21.3,30.13,East,90,9.0,13.0,84,0.00,,,0.00,0,Wunderground v.1.15,2013-02-22 04:50:00,
2013-02-21 22:55:00,25.5,21.3,30.13,ESE,108,11.0,18.0,84,0.00,,,0.00,0,Wunderground v.1.15,2013-02-22 04:55:00,
2013-02-21 22:59:00,25.4,21.2,30.12,East,98,16.0,18.0,84,0.00,,,0.00,0,Wunderground v.1.15,2013-02-22 04:59:00,
2013-02-21 23:00:00,25.4,21.2,30.12,ESE,123,18.0,18.0,84,0.00,,,0.00,0,Wunderground v.1.15,2013-02-22 05:00:00,
2013-02-21 23:05:00,25.3,21.4,30.13,East,95,16.0,18.0,85,0.00,,,0.00,0,Wunderground v.1.15,2013-02-22 05:05:00,
2013-02-21 23:10:00,25.2,21.3,30.12,East,83,13.0,13.0,85,0.00,,,0.00,0,Wunderground v.1.15,2013-02-22 05:10:00,
2013-02-21 23:15:00,25.1,21.5,30.12,East,84,14.0,15.0,86,0.00,,,0.00,0,Wunderground v.1.15,2013-02-22 05:15:00,
2013-02-21 23:20:00,24.9,21.6,30.12,East,84,11.0,13.0,87,0.00,,,0.00,0,Wunderground v.1.15,2013-02-22 05:20:00,
2013-02-21 23:25:00,24.6,21.6,30.11,East,87,10.0,15.0,88,0.00,,,0.00,0,Wunderground v.1.15,2013-02-22 05:25:00,
2013-02-21 23:30:00,24.4,21.6,30.10,ENE,78,10.0,11.0,89,0.00,,,0.00,0,Wunderground v.1.15,2013-02-22 05:30:00,
2013-02-21 23:35:00,24.3,21.5,30.10,ENE,60,10.0,16.0,89,0.00,,,0.00,0,Wunderground v.1.15,2013-02-22 05:35:00,
2013-02-21 23:40:00,24.3,21.8,30.10,ENE,68,12.0,14.0,90,0.00,,,0.00,0,Wunderground v.1.15,2013-02-22 05:40:00,
2013-02-21 23:45:00,24.3,21.8,30.10,East,92,14.0,17.0,90,0.00,,,0.00,0,Wunderground v.1.15,2013-02-22 05:45:00,
2013-02-21 23:50:00,24.3,21.8,30.10,East,82,9.0,11.0,90,0.00,,,0.00,0,Wunderground v.1.15,2013-02-22 05:50:00,
2013-02-21 23:55:00,24.3,21.8,30.10,East,84,8.0,15.0,90,0.00,,,0.00,0,Wunderground v.1.15,2013-02-22 05:55:00,